| time (UTC) | temp F | wind direction | speed MPH | gust MPH | rain 1hr in | rain 24hr in | rain mn in | humidity % | barometer mb |
| 20260505124915 | 52 | 1 | 1.0 | 5.0 | 0.00 | 0.47 | 0.06 | 91 | 1010.6 |
| 20260505124419 | 52 | 248 | 2.0 | 4.0 | 0.00 | 0.47 | 0.06 | 92 | 1010.6 |
| 20260505123931 | 52 | 340 | 0.0 | 4.0 | 0.00 | 0.47 | 0.06 | 92 | 1010.6 |
| 20260505123425 | 52 | 304 | 1.0 | 5.0 | 0.00 | 0.47 | 0.06 | 92 | 1010.6 |
| 20260505122927 | 52 | 297 | 1.0 | 3.0 | 0.00 | 0.47 | 0.06 | 92 | 1010.6 |
| 20260505122420 | 52 | 7 | 1.0 | 3.0 | 0.00 | 0.47 | 0.06 | 92 | 1010.6 |
| 20260505121935 | 52 | 319 | 2.0 | 3.0 | 0.00 | 0.47 | 0.06 | 92 | 1010.7 |
| 20260505121425 | 52 | 322 | 2.0 | 3.0 | 0.00 | 0.47 | 0.06 | 93 | 1010.6 |
| 20260505120934 | 52 | 259 | 1.0 | 4.0 | 0.00 | 0.47 | 0.06 | 92 | 1010.7 |
| 20260505120418 | 52 | 327 | 2.0 | 5.0 | 0.00 | 0.47 | 0.06 | 92 | 1010.7 |
| 20260505115923 | 52 | 306 | 2.0 | 6.0 | 0.00 | 0.47 | 0.06 | 92 | 1010.7 |
| 20260505115414 | 52 | 4 | 1.0 | 4.0 | 0.00 | 0.47 | 0.06 | 93 | 1010.7 |
| 20260505114928 | 52 | 9 | 2.0 | 6.0 | 0.00 | 0.47 | 0.06 | 93 | 1010.7 |
| 20260505114432 | 52 | 322 | 3.0 | 6.0 | 0.00 | 0.47 | 0.06 | 92 | 1010.7 |
| 20260505113925 | 52 | 299 | 3.0 | 6.0 | 0.00 | 0.47 | 0.06 | 93 | 1010.8 |
| 20260505113426 | 52 | 264 | 1.0 | 6.0 | 0.00 | 0.47 | 0.06 | 93 | 1010.8 |
| 20260505112919 | 51 | 307 | 3.0 | 6.0 | 0.00 | 0.47 | 0.06 | 93 | 1010.8 |
| 20260505112433 | 51 | 270 | 2.0 | 6.0 | 0.00 | 0.47 | 0.06 | 93 | 1011.0 |
| 20260505111917 | 51 | 274 | 1.0 | 5.0 | 0.00 | 0.47 | 0.06 | 93 | 1011.0 |
| 20260505111430 | 51 | 297 | 1.0 | 6.0 | 0.00 | 0.47 | 0.06 | 94 | 1011.0 |
| 20260505110944 | 51 | 9 | 1.0 | 6.0 | 0.00 | 0.47 | 0.06 | 94 | 1011.0 |
| 20260505110419 | 51 | 314 | 1.0 | 4.0 | 0.00 | 0.47 | 0.06 | 94 | 1011.0 |
| 20260505101922 | 52 | 294 | 0.0 | 5.0 | 0.00 | 0.47 | 0.06 | 94 | 1011.0 |
| 20260505101415 | 52 | 324 | 1.0 | 5.0 | 0.00 | 0.47 | 0.06 | 94 | 1010.9 |
| 20260505100918 | 52 | 297 | 1.0 | 5.0 | 0.00 | 0.47 | 0.06 | 94 | 1010.9 |
| 20260505100425 | 52 | 298 | 0.0 | 5.0 | 0.00 | 0.47 | 0.06 | 94 | 1011.0 |
| 20260505095417 | 51 | 316 | 2.0 | 5.0 | 0.00 | 0.47 | 0.06 | 94 | 1011.0 |
| 20260505094931 | 51 | 322 | 0.0 | 5.0 | 0.00 | 0.47 | 0.06 | 94 | 1011.1 |
| 20260505094424 | 51 | 335 | 2.0 | 5.0 | 0.00 | 0.47 | 0.06 | 94 | 1011.0 |
| 20260505093958 | 51 | 349 | 0.0 | 4.0 | 0.00 | 0.47 | 0.06 | 94 | 1011.0 |
| 20260505093422 | 52 | 20 | 0.0 | 4.0 | 0.00 | 0.47 | 0.06 | 94 | 1011.1 |
| 20260505092915 | 52 | 292 | 1.0 | 5.0 | 0.00 | 0.47 | 0.06 | 94 | 1011.0 |
| 20260505092419 | 51 | 244 | 2.0 | 5.0 | 0.00 | 0.47 | 0.06 | 94 | 1011.0 |
| 20260505091931 | 51 | 352 | 0.0 | 5.0 | 0.00 | 0.47 | 0.06 | 94 | 1011.0 |
| 20260505091414 | 51 | 304 | 0.0 | 3.0 | 0.00 | 0.47 | 0.06 | 94 | 1011.0 |
| 20260505090956 | 51 | 301 | 0.0 | 5.0 | 0.00 | 0.47 | 0.06 | 94 | 1011.0 |
| 20260505090442 | 51 | 302 | 1.0 | 5.0 | 0.00 | 0.47 | 0.06 | 94 | 1011.1 |
| 20260505085923 | 51 | 315 | 2.0 | 5.0 | 0.00 | 0.47 | 0.06 | 94 | 1011.0 |
| 20260505085436 | 51 | 270 | 2.0 | 5.0 | 0.00 | 0.47 | 0.06 | 94 | 1011.0 |
| 20260505084916 | 51 | 296 | 2.0 | 5.0 | 0.00 | 0.47 | 0.06 | 94 | 1011.1 |
| 20260505084448 | 51 | 306 | 1.0 | 6.0 | 0.00 | 0.47 | 0.06 | 94 | 1011.1 |
| 20260505083941 | 51 | 296 | 1.0 | 6.0 | 0.00 | 0.47 | 0.06 | 94 | 1011.1 |
| 20260505083428 | 51 | 315 | 1.0 | 5.0 | 0.00 | 0.47 | 0.06 | 94 | 1011.2 |
| 20260505082933 | 51 | 297 | 1.0 | 5.0 | 0.00 | 0.47 | 0.06 | 94 | 1011.2 |
| 20260505082433 | 51 | 304 | 1.0 | 6.0 | 0.00 | 0.47 | 0.06 | 94 | 1011.3 |
| 20260505081926 | 51 | 321 | 2.0 | 6.0 | 0.00 | 0.47 | 0.06 | 94 | 1011.2 |
| 20260505081429 | 51 | 297 | 1.0 | 7.0 | 0.00 | 0.47 | 0.06 | 94 | 1011.2 |
| 20260505080921 | 51 | 317 | 2.0 | 7.0 | 0.00 | 0.47 | 0.06 | 94 | 1011.2 |
| 20260505080429 | 51 | 283 | 3.0 | 6.0 | 0.00 | 0.47 | 0.06 | 94 | 1011.2 |
| 20260505075939 | 51 | 305 | 2.0 | 7.0 | 0.00 | 0.47 | 0.06 | 94 | 1011.2 |
| 20260505075424 | 51 | 309 | 2.0 | 8.0 | 0.00 | 0.47 | 0.06 | 94 | 1011.1 |
| 20260505074938 | 51 | 329 | 2.0 | 6.0 | 0.00 | 0.47 | 0.06 | 94 | 1011.1 |
| 20260505074421 | 51 | 305 | 1.0 | 4.0 | 0.00 | 0.47 | 0.06 | 94 | 1011.2 |
| 20260505073933 | 51 | 299 | 2.0 | 4.0 | 0.00 | 0.47 | 0.06 | 94 | 1011.2 |
| 20260505073424 | 51 | 334 | 0.0 | 5.0 | 0.00 | 0.47 | 0.06 | 94 | 1011.2 |
| 20260505072957 | 51 | 290 | 2.0 | 6.0 | 0.00 | 0.47 | 0.06 | 94 | 1011.2 |
| 20260505071917 | 51 | 252 | 2.0 | 6.0 | 0.00 | 0.47 | 0.06 | 93 | 1011.3 |
| 20260505071419 | 51 | 253 | 3.0 | 6.0 | 0.00 | 0.47 | 0.06 | 93 | 1011.2 |
| 20260505070932 | 52 | 313 | 2.0 | 6.0 | 0.00 | 0.47 | 0.06 | 93 | 1011.2 |
| 20260505070455 | 52 | 267 | 1.0 | 5.0 | 0.00 | 0.47 | 0.06 | 93 | 1011.2 |
| 20260505065926 | 52 | 278 | 1.0 | 5.0 | 0.00 | 0.47 | 0.06 | 93 | 1011.2 |
| 20260505065430 | 51 | 290 | 1.0 | 6.0 | 0.00 | 0.47 | 0.06 | 93 | 1011.2 |
| 20260505064922 | 52 | 323 | 2.0 | 6.0 | 0.00 | 0.47 | 0.06 | 93 | 1011.3 |
| 20260505064453 | 52 | 323 | 1.0 | 6.0 | 0.00 | 0.47 | 0.06 | 93 | 1011.2 |
| 20260505063916 | 52 | 319 | 3.0 | 8.0 | 0.00 | 0.47 | 0.06 | 93 | 1011.1 |
| 20260505063428 | 52 | 319 | 3.0 | 6.0 | 0.00 | 0.47 | 0.06 | 94 | 1011.2 |
| 20260505062920 | 52 | 302 | 2.0 | 5.0 | 0.00 | 0.47 | 0.06 | 94 | 1011.2 |
| 20260505062420 | 52 | 305 | 1.0 | 4.0 | 0.00 | 0.47 | 0.06 | 94 | 1011.2 |
| 20260505061931 | 52 | 307 | 1.0 | 4.0 | 0.00 | 0.47 | 0.06 | 94 | 1011.3 |
| 20260505061415 | 52 | 321 | 1.0 | 4.0 | 0.00 | 0.47 | 0.06 | 94 | 1011.4 |
| 20260505060928 | 52 | 347 | 0.0 | 4.0 | 0.00 | 0.47 | 0.06 | 94 | 1011.4 |
| 20260505060432 | 52 | 12 | 327.0 | 0.0 | 0.00 | 0.47 | 0.06 | 1011.5 | |
| 20260505055922 | 0 | 0.0 | 0.0 | 0.00 | 0.47 | 0.06 | 1011.6 | ||
| 20260505055425 | 0 | 0.0 | 0.0 | 0.00 | 0.47 | 0.06 | 1011.6 | ||
| 20260505054916 | 0 | 0.0 | 0.0 | 0.00 | 0.47 | 0.06 | 1011.4 | ||
| 20260505054449 | 0 | 0.0 | 0.0 | 0.00 | 0.47 | 0.06 | 1011.5 | ||
| 20260505054017 | 0 | 0.0 | 0.0 | 0.00 | 0.47 | 0.06 | 1011.4 | ||
| 20260505053430 | 0 | 0.0 | 0.0 | 0.00 | 0.47 | 0.06 | 1011.4 | ||
| 20260505052919 | 0 | 0.0 | 0.0 | 0.00 | 0.47 | 0.06 | 1011.3 | ||
| 20260505052451 | 0 | 0.0 | 0.0 | 0.00 | 0.47 | 0.06 | 1011.3 | ||
| 20260505052023 | 0 | 0.0 | 0.0 | 0.00 | 0.47 | 0.06 | 1011.3 | ||
| 20260505050925 | 0 | 0.0 | 0.0 | 0.00 | 0.47 | 0.06 | 1011.2 | ||
| 20260505050431 | 0 | 0.0 | 0.0 | 0.00 | 0.47 | 0.06 | 1011.2 | ||
| 20260505041424 | 53 | 307 | 0.0 | 2.0 | 0.00 | 0.47 | 0.06 | 94 | 1011.4 |
| 20260505040938 | 53 | 256 | 0.0 | 5.0 | 0.00 | 0.47 | 0.06 | 94 | 1011.4 |
| 20260505040420 | 53 | 323 | 2.0 | 5.0 | 0.00 | 0.47 | 0.06 | 94 | 1011.3 |
| 20260505035933 | 53 | 319 | 1.0 | 4.0 | 0.00 | 0.47 | 0.06 | 94 | 1011.4 |
| 20260505035434 | 53 | 297 | 2.0 | 4.0 | 0.00 | 0.51 | 0.06 | 94 | 1011.4 |
| 20260505034923 | 53 | 308 | 1.0 | 4.0 | 0.00 | 0.51 | 0.06 | 94 | 1011.4 |
| 20260505034428 | 53 | 318 | 1.0 | 5.0 | 0.00 | 0.51 | 0.06 | 94 | 1011.5 |
| 20260505033921 | 53 | 276 | 1.0 | 5.0 | 0.00 | 0.51 | 0.06 | 94 | 1011.5 |
| 20260505033433 | 53 | 301 | 2.0 | 7.0 | 0.00 | 0.51 | 0.06 | 94 | 1011.6 |
| 20260505032918 | 53 | 321 | 2.0 | 7.0 | 0.00 | 0.51 | 0.06 | 94 | 1011.7 |
| 20260505032431 | 53 | 302 | 0.0 | 4.0 | 0.00 | 0.51 | 0.06 | 94 | 1011.7 |
| 20260505031916 | 53 | 307 | 2.0 | 4.0 | 0.00 | 0.51 | 0.06 | 94 | 1011.7 |
| 20260505031430 | 53 | 274 | 1.0 | 6.0 | 0.00 | 0.51 | 0.06 | 94 | 1011.6 |
| 20260505030914 | 53 | 354 | 1.0 | 6.0 | 0.00 | 0.51 | 0.06 | 94 | 1011.6 |
| 20260505030450 | 53 | 343 | 1.0 | 5.0 | 0.00 | 0.51 | 0.06 | 94 | 1011.7 |
| 20260505025933 | 53 | 314 | 1.0 | 4.0 | 0.00 | 0.51 | 0.06 | 94 | 1011.7 |
| 20260505025426 | 54 | 304 | 1.0 | 4.0 | 0.00 | 0.51 | 0.06 | 94 | 1011.6 |
| 20260505024939 | 54 | 349 | 0.0 | 4.0 | 0.00 | 0.51 | 0.06 | 94 | 1011.6 |
| 20260505024421 | 54 | 319 | 2.0 | 4.0 | 0.00 | 0.51 | 0.06 | 94 | 1011.6 |
| 20260505023948 | 54 | 317 | 2.0 | 4.0 | 0.00 | 0.51 | 0.06 | 94 | 1011.6 |
| 20260505023441 | 54 | 324 | 3.0 | 4.0 | 0.00 | 0.51 | 0.06 | 94 | 1011.7 |
| 20260505022455 | 54 | 273 | 0.0 | 3.0 | 0.00 | 0.51 | 0.06 | 94 | 1011.7 |
| 20260505021918 | 54 | 270 | 1.0 | 3.0 | 0.00 | 0.51 | 0.06 | 94 | 1011.7 |
| 20260505021429 | 54 | 293 | 0.0 | 2.0 | 0.00 | 0.51 | 0.06 | 94 | 1011.7 |
| 20260505020914 | 54 | 302 | 0.0 | 2.0 | 0.00 | 0.51 | 0.06 | 94 | 1011.7 |
| 20260505020421 | 54 | 274 | 0.0 | 1.0 | 0.00 | 0.51 | 0.06 | 94 | 1011.6 |
| 20260505015915 | 54 | 273 | 0.0 | 1.0 | 0.00 | 0.51 | 0.06 | 94 | 1011.7 |
| 20260505015419 | 54 | 273 | 0.0 | 1.0 | 0.00 | 0.51 | 0.06 | 94 | 1011.7 |
| 20260505014933 | 54 | 274 | 0.0 | 3.0 | 0.00 | 0.51 | 0.06 | 94 | 1011.7 |
| 20260505014427 | 54 | 295 | 1.0 | 4.0 | 0.00 | 0.51 | 0.06 | 94 | 1011.7 |
| 20260505013932 | 54 | 271 | 0.0 | 4.0 | 0.00 | 0.51 | 0.06 | 94 | 1011.6 |
| 20260505013434 | 54 | 301 | 0.0 | 3.0 | 0.00 | 0.51 | 0.06 | 94 | 1011.6 |
| 20260505012919 | 54 | 305 | 1.0 | 3.0 | 0.00 | 0.51 | 0.06 | 94 | 1011.6 |
| 20260505012433 | 54 | 354 | 1.0 | 3.0 | 0.00 | 0.51 | 0.06 | 94 | 1011.7 |
| 20260505011945 | 54 | 300 | 1.0 | 3.0 | 0.00 | 0.51 | 0.06 | 94 | 1011.7 |
| 20260505011427 | 54 | 304 | 1.0 | 3.0 | 0.00 | 0.51 | 0.06 | 94 | 1011.7 |
| 20260505010920 | 54 | 302 | 1.0 | 3.0 | 0.00 | 0.51 | 0.06 | 94 | 1011.8 |
| 20260505010427 | 54 | 301 | 0.0 | 4.0 | 0.00 | 0.51 | 0.06 | 94 | 1011.8 |
| 20260505005927 | 54 | 320 | 1.0 | 4.0 | 0.00 | 0.51 | 0.06 | 94 | 1011.8 |
| 20260505005420 | 54 | 227 | 0.0 | 4.0 | 0.00 | 0.55 | 0.06 | 94 | 1011.8 |
| 20260505004953 | 54 | 301 | 1.0 | 4.0 | 0.00 | 0.55 | 0.06 | 94 | 1011.8 |
| 20260505004417 | 54 | 313 | 0.0 | 3.0 | 0.00 | 0.55 | 0.06 | 94 | 1011.9 |
| 20260505003920 | 54 | 311 | 1.0 | 3.0 | 0.00 | 0.55 | 0.06 | 94 | 1011.9 |
| 20260505003433 | 54 | 245 | 1.0 | 3.0 | 0.00 | 0.55 | 0.06 | 94 | 1012.0 |
| 20260505002917 | 54 | 182 | 0.0 | 2.0 | 0.00 | 0.55 | 0.06 | 94 | 1012.0 |
| 20260505002439 | 54 | 319 | 0.0 | 2.0 | 0.00 | 0.55 | 0.06 | 94 | 1012.0 |
| 20260505001921 | 54 | 255 | 0.0 | 2.0 | 0.00 | 0.55 | 0.06 | 94 | 1012.0 |
| 20260505001415 | 54 | 197 | 0.0 | 3.0 | 0.00 | 0.55 | 0.06 | 94 | 1012.1 |
| 20260505000948 | 54 | 198 | 1.0 | 3.0 | 0.00 | 0.55 | 0.06 | 94 | 1012.1 |
| 20260505000455 | 54 | 214 | 0.0 | 2.0 | 0.00 | 0.55 | 0.06 | 94 | 1012.1 |
| 20260504235916 | 54 | 198 | 1.0 | 2.0 | 0.04 | 0.55 | 0.06 | 94 | 1012.1 |
| 20260504235430 | 54 | 226 | 0.0 | 3.0 | 0.04 | 0.63 | 0.06 | 94 | 1012.1 |
| 20260504234923 | 54 | 186 | 0.0 | 3.0 | 0.08 | 0.63 | 0.06 | 94 | 1012.2 |
| 20260504234458 | 54 | 188 | 1.0 | 3.0 | 0.08 | 0.63 | 0.06 | 94 | 1012.2 |
| 20260504233920 | 54 | 187 | 0.0 | 3.0 | 0.12 | 0.63 | 0.06 | 94 | 1012.2 |
| 20260504233434 | 54 | 181 | 1.0 | 3.0 | 0.16 | 0.63 | 0.06 | 94 | 1012.3 |
| 20260504232943 | 54 | 187 | 1.0 | 3.0 | 0.20 | 0.63 | 0.06 | 94 | 1012.3 |
| 20260504232427 | 54 | 203 | 1.0 | 3.0 | 0.24 | 0.63 | 0.06 | 94 | 1012.3 |
| 20260504231919 | 55 | 207 | 1.0 | 3.0 | 0.28 | 0.63 | 0.06 | 94 | 1012.3 |
| 20260504231423 | 55 | 187 | 0.0 | 3.0 | 0.28 | 0.63 | 0.06 | 94 | 1012.4 |
| 20260504230917 | 55 | 167 | 0.0 | 3.0 | 0.28 | 0.63 | 0.06 | 94 | 1012.5 |
| 20260504230424 | 55 | 167 | 0.0 | 3.0 | 0.28 | 0.63 | 0.06 | 94 | 1012.5 |
| 20260504225936 | 55 | 203 | 0.0 | 2.0 | 0.24 | 0.59 | 0.05 | 94 | 1012.5 |
| 20260504225446 | 55 | 202 | 0.0 | 1.0 | 0.24 | 0.59 | 0.05 | 94 | 1012.5 |
| 20260504224928 | 55 | 193 | 0.0 | 1.0 | 0.24 | 0.55 | 0.04 | 94 | 1012.5 |
| 20260504224420 | 55 | 183 | 0.0 | 4.0 | 0.24 | 0.55 | 0.04 | 94 | 1012.6 |
| 20260504223935 | 55 | 149 | 1.0 | 4.0 | 0.20 | 0.51 | 0.03 | 94 | 1012.6 |
| 20260504223417 | 55 | 204 | 0.0 | 3.0 | 0.16 | 0.47 | 0.02 | 94 | 1012.6 |
| 20260504222930 | 55 | 210 | 0.0 | 2.0 | 0.12 | 0.43 | 0.02 | 94 | 1012.7 |
| 20260504222444 | 55 | 191 | 0.0 | 2.0 | 0.08 | 0.39 | 0.01 | 94 | 1012.7 |
| 20260504221927 | 55 | 188 | 1.0 | 4.0 | 0.04 | 0.35 | 0.00 | 94 | 1012.8 |
| 20260504221440 | 55 | 199 | 1.0 | 4.0 | 0.04 | 0.35 | 0.00 | 94 | 1012.8 |
| 20260504220924 | 56 | 304 | 0.0 | 1.0 | 0.08 | 0.35 | 0.00 | 93 | 1012.9 |
| 20260504220425 | 56 | 283 | 0.0 | 2.0 | 0.08 | 0.35 | 0.00 | 93 | 1013.0 |
| 20260504215918 | 56 | 335 | 0.0 | 4.0 | 0.08 | 0.35 | 0.00 | 93 | 1013.1 |
| 20260504215425 | 56 | 302 | 1.0 | 4.0 | 0.08 | 0.35 | 0.07 | 93 | 1013.1 |
| 20260504214919 | 56 | 294 | 1.0 | 3.0 | 0.04 | 0.31 | 0.06 | 93 | 1013.1 |
| 20260504214423 | 56 | 236 | 1.0 | 3.0 | 0.04 | 0.31 | 0.06 | 93 | 1013.1 |
| 20260504213916 | 56 | 287 | 1.0 | 3.0 | 0.04 | 0.31 | 0.06 | 93 | 1013.1 |
| 20260504213439 | 56 | 312 | 0.0 | 2.0 | 0.04 | 0.31 | 0.06 | 93 | 1013.1 |
| 20260504212919 | 56 | 236 | 0.0 | 2.0 | 0.04 | 0.31 | 0.06 | 92 | 1013.1 |
| 20260504212431 | 56 | 327 | 0.0 | 3.0 | 0.08 | 0.31 | 0.06 | 92 | 1013.1 |
| 20260504211946 | 57 | 315 | 0.0 | 3.0 | 0.12 | 0.31 | 0.06 | 92 | 1013.2 |
| 20260504211437 | 57 | 181 | 0.0 | 3.0 | 0.12 | 0.31 | 0.06 | 93 | 1013.2 |
| 20260504210921 | 57 | 181 | 0.0 | 1.0 | 0.08 | 0.28 | 0.06 | 93 | 1013.2 |
| 20260504210425 | 57 | 181 | 0.0 | 1.0 | 0.08 | 0.28 | 0.06 | 92 | 1013.2 |
| 20260504205940 | 57 | 290 | 0.0 | 1.0 | 0.08 | 0.28 | 0.06 | 92 | 1013.2 |
| 20260504205423 | 57 | 290 | 0.0 | 1.0 | 0.08 | 0.28 | 0.06 | 92 | 1013.3 |
| 20260504204955 | 57 | 339 | 0.0 | 0.0 | 0.08 | 0.28 | 0.06 | 92 | 1013.2 |
| 20260504204423 | 57 | 339 | 0.0 | 0.0 | 0.08 | 0.28 | 0.06 | 92 | 1013.2 |
| 20260504203927 | 57 | 339 | 0.0 | 0.0 | 0.08 | 0.28 | 0.06 | 91 | 1013.2 |
| 20260504203420 | 57 | 339 | 0.0 | 0.0 | 0.08 | 0.28 | 0.06 | 91 | 1013.2 |
| 20260504202933 | 57 | 339 | 0.0 | 0.0 | 0.08 | 0.28 | 0.06 | 91 | 1013.2 |
| 20260504202503 | 57 | 340 | 0.0 | 0.0 | 0.04 | 0.24 | 0.05 | 91 | 1013.2 |
| 20260504201925 | 57 | 339 | 0.0 | 0.0 | 0.00 | 0.20 | 0.04 | 91 | 1013.2 |
| 20260504201439 | 57 | 339 | 0.0 | 0.0 | 0.00 | 0.20 | 0.04 | 90 | 1013.2 |
| 20260504200921 | 57 | 339 | 0.0 | 0.0 | 0.00 | 0.20 | 0.04 | 90 | 1013.2 |
| 20260504200427 | 57 | 340 | 0.0 | 0.0 | 0.00 | 0.20 | 0.04 | 90 | 1013.2 |
| 20260504195920 | 57 | 339 | 0.0 | 0.0 | 0.04 | 0.20 | 0.04 | 90 | 1013.2 |
| 20260504195424 | 57 | 339 | 0.0 | 0.0 | 0.04 | 0.20 | 0.04 | 90 | 1013.2 |
| 20260504194918 | 57 | 340 | 0.0 | 0.0 | 0.04 | 0.20 | 0.04 | 90 | 1013.2 |
| 20260504194421 | 57 | 339 | 0.0 | 1.0 | 0.04 | 0.20 | 0.04 | 91 | 1013.1 |
| 20260504193916 | 57 | 339 | 0.0 | 1.0 | 0.04 | 0.20 | 0.04 | 91 | 1013.2 |
| 20260504193428 | 57 | 351 | 0.0 | 1.0 | 0.04 | 0.20 | 0.04 | 90 | 1013.1 |
| 20260504192933 | 57 | 8 | 0.0 | 0.0 | 0.04 | 0.20 | 0.04 | 90 | 1012.9 |
| 20260504192425 | 57 | 8 | 0.0 | 0.0 | 0.04 | 0.20 | 0.04 | 90 | 1012.8 |
| 20260504191939 | 58 | 8 | 0.0 | 0.0 | 0.04 | 0.20 | 0.04 | 90 | 1012.6 |
| 20260504191442 | 58 | 8 | 0.0 | 0.0 | 0.04 | 0.20 | 0.04 | 89 | 1012.5 |
| 20260504190928 | 58 | 8 | 0.0 | 0.0 | 0.04 | 0.20 | 0.04 | 89 | 1012.4 |
| 20260504190433 | 58 | 8 | 327.0 | 0.0 | 0.04 | 0.20 | 0.04 | 82 | 1012.4 |
| 20260504181030 | 62 | 8 | 0.0 | 0.0 | 0.00 | 0.16 | 0.03 | 82 | 1012.1 |